Regional Weather Roundup
Issued by NWS Raleigh/Durham, NC

Home | Current Version | Previous Version | Text Only | Print | Product List | Glossary On
Versions: 1 2 3 4 5 6 7 8 9 10 11 12 13 14 15 16 17 18 19 20 21 22 23 24 25 26 27 28 29 30 31 32 33 34 35 36 37 38 39 40 41 42 43 44 45 46 47 48 49 50
000
ASUS42 KRAH 252210
RWRRAH
NORTH CAROLINA WEATHER ROUNDUP
NATIONAL WEATHER SERVICE RALEIGH NC
500 PM EST THU DEC 25 2014

NOTE: "FAIR" INDICATES FEW OR NO CLOUDS BELOW 12,000 FEET WITH NO
SIGNIFICANT WEATHER AND/OR OBSTRUCTIONS TO VISIBILITY.

NCZ001-053-055-056-065-067-252300-
WESTERN NORTH CAROLINA

CITY           SKY/WX    TMP DP  RH WIND       PRES   REMARKS
ASHEVILLE      CLEAR     46  29  51 N9        30.15R
JEFFERSON      CLEAR     38  26  60 W6        30.11R WCI  34
MORGANTON      CLEAR     51  31  46 S3        30.20R
HICKORY        CLEAR     49  30  48 W6        30.15R
RUTHERFORDTON  CLEAR     54  31  42 CALM      30.16R
MOUNT AIRY     CLEAR     49  32  51 NW5       30.15R
BOONE          CLEAR     37  27  69 W6        30.14R WCI  32
$$

NCZ021-022-025-041-071-084-088-252300-
CENTRAL NORTH CAROLINA

CITY           SKY/WX    TMP DP  RH WIND       PRES   REMARKS
CHARLOTTE      CLEAR     54  30  40 NW5       30.14R
GREENSBORO     CLEAR     50  30  46 NW6       30.12R
WINSTON-SALEM  CLEAR     51  28  41 NW3       30.14R
RALEIGH-DURHAM CLEAR     53  31  42 VRB3      30.14R
FORT BRAGG     CLEAR     57  36  44 NW6       30.13R
FAYETTEVILLE   CLEAR     58  35  42 NW7       30.13R
BURLINGTON     CLEAR     52  29  41 NW5       30.13R
LAURINBURG     CLEAR     56  36  47 NW5       30.14R
$$

NCZ011-015-027-028-043-044-047-080-103-252300-
NORTHEASTERN NORTH CAROLINA

CITY           SKY/WX    TMP DP  RH WIND       PRES   REMARKS
ROCKY MT-WILSO CLEAR     54  33  45 NW8       30.13R
GREENVILLE     CLEAR     55  36  47 NW3       30.13R
WASHINGTON     CLEAR     55  36  48 W5        30.12R
ELIZABETH CITY CLEAR     55  36  48 NW6       30.10R
MANTEO         CLEAR     52  41  66 NW3       30.11R
CAPE HATTERAS  CLEAR     50  44  80 CALM      30.11R
$$

NCZ078-087-090-091-093-098-101-252300-
SOUTHEASTERN NORTH CAROLINA

CITY           SKY/WX    TMP DP  RH WIND       PRES   REMARKS
LUMBERTON      CLEAR     58  41  53 W7        30.13R
GOLDSBORO      CLEAR     56  40  54 W8        30.11R
KINSTON        CLEAR     55  37  50 NW3       30.12R
KENANSVILLE    CLEAR     56  37  47 NW3       30.13R
NEW BERN       CLEAR     57  37  47 NW6       30.13R
CHERRY POINT   CLEAR     57  38  48 NW7       30.12R
BEAUFORT       CLEAR     55  44  66 NW6       30.11R
JACKSONVILLE   CLEAR     56  40  55 NW7       30.11R
WILMINGTON     CLEAR     57  41  55 W6        30.12R
$$



USA.gov is the U.S. government's official web portal to all federal, state and local government web resources and services.